Flag for U.S.A. Weather past 2 weeks in Missoula, Montana, U.S.A.

Now
62 °F

Light rain. Partly sunny.


Feels Like: 62 °F
Forecast: 46 / 67 °F
Wind: 7 mph from West

Location: Missoula International Airport

Current Time: Jun 3, 2015 at 4:13:47 PM

Latest Report: Jun 3, 2015 at 2:53 PM


Visibility: 10 mi

Pressure: 29.94 "Hg

Humidity: 50%

Dew point: 43 °F

Location of MissoulaLocation

Historic Weather in Missoula — Graph

°F

Missoula temperature yesterday

Maximum temperature yesterday: 62 °F (at 2:53 PM)
Minimum temperature yesterday: 50 °F (at 5:53 AM)
Average temperature yesterday: 56 °F

Past Weeks' High & Low Weather Summary

 TemperatureHumidityPressure
High80 °F (May 31, 4:53 PM)100% (May 30, 9:53 PM)30.20 "Hg (May 30, 9:53 PM)
Low41 °F (May 26, 3:53 AM)21% (May 21, 3:53 PM)29.78 "Hg (May 22, 6:53 PM)
Average58 °F63%29.97 "Hg
* Reported May 19 2:53 PM — Jun 3 2:53 PM, Missoula, Weather by CustomWeather, © 2015

Note: Actual official high and low records may vary slightly from our data, if they occured in-between our weather recording intervals... More about our weather records

Advertising

Missoula weather history for previous 24 hours

 ConditionsComfort  
Time TempWeatherWind HumidityBarometerVisibility
2:53 PM
Wed, Jun 3
62 °FLight rain. Partly sunny.7 mph50%29.94 "Hg10 mi
1:53 PM64 °FSunny.12 mph49%29.94 "Hg10 mi
12:53 PM58 °FLight rain. Overcast.9 mph65%29.96 "Hg10 mi
11:53 AM61 °FBroken clouds.5 mph50%29.96 "Hg10 mi
10:53 AM59 °FPassing clouds.5 mph64%29.98 "Hg10 mi
9:53 AM53 °FOvercast.5 mph83%30.01 "Hg10 mi
8:53 AM52 °FOvercast.5 mph83%30.01 "Hg10 mi
7:55 AM50 °FBroken clouds.No wind89%30.03 "Hg10 mi
6:53 AM48 °FOvercast.No wind93%30.01 "Hg10 mi
5:53 AM46 °FPassing clouds.No wind93%30.02 "Hg10 mi
4:53 AM47 °FPassing clouds.6 mph97%30.01 "Hg10 mi
3:53 AM49 °FPassing clouds.No wind93%30.01 "Hg10 mi
2:53 AM49 °FPassing clouds.6 mph93%30.01 "Hg10 mi
1:53 AM52 °FPassing clouds.6 mph89%30.01 "Hg10 mi
12:53 AM53 °FOvercast.6 mph83%30.01 "Hg10 mi
11:53 PM
Tue, Jun 2
53 °FMostly cloudy.7 mph89%30.01 "Hg10 mi
10:53 PM54 °FLight rain. Mostly cloudy.5 mph83%30.01 "Hg10 mi
9:53 PM56 °FLight rain. Mostly cloudy.6 mph75%29.99 "Hg9 mi
8:53 PM58 °FScattered clouds.6 mph67%29.97 "Hg10 mi
7:53 PM61 °FPartly sunny.12 mph62%29.96 "Hg10 mi
6:53 PM62 °FCloudy.5 mph58%29.94 "Hg10 mi
5:53 PM61 °FMostly cloudy.No wind67%29.94 "Hg10 mi
4:53 PM61 °FPartly sunny.3 mph67%29.94 "Hg10 mi
Weather by CustomWeather, © 2015

See weather overviewHow to use our weather pages